GFSSW_250_rhum_063.txt.gz
RH
100 100 100 100 100 100 100 100 100 100 100 100 98 100 75 81 85 58 52 38 28 31 29 26 31 36 36 49 49 43 52 37 32 62 40 34 24 54 57 39 32 27 18 18 16
100 100 100 100 100 100 100 100 100 100 100 100 100 94 93 77 78 67 44 33 28 25 24 25 29 30 34 46 51 45 52 41 35 54 46 34 27 55 58 40 34 26 19 18 17
100 100 100 100 100 100 100 100 100 100 100 100 100 100 100 73 61 44 37 33 27 20 22 23 26 26 32 40 43 42 44 39 37 52 50 34 38 58 67 66 39 33 21 22 17
99 100 100 100 100 100 98 96 100 100 100 100 100 91 65 55 50 41 31 28 21 17 18 19 22 23 30 34 38 40 40 39 40 54 54 38 44 55 84 58 42 35 27 24 17
100 100 95 100 100 100 100 100 100 92 95 94 81 80 62 41 34 28 24 22 16 16 17 19 21 24 28 34 38 38 36 34 41 57 60 53 54 55 84 69 49 39 30 24 18
80 81 100 96 100 100 98 96 99 100 96 89 71 62 47 35 31 25 25 21 16 13 16 19 23 29 29 35 37 38 34 34 59 60 70 50 53 68 63 55 49 36 32 26 22
96 85 98 100 90 100 100 100 100 95 80 64 46 46 43 32 31 26 24 19 15 14 14 18 23 29 38 41 44 38 36 36 79 56 78 45 40 81 65 56 58 40 37 32 25
100 100 100 100 100 100 100 90 83 91 76 61 53 37 28 28 30 28 19 16 16 21 18 19 23 33 44 49 57 42 36 54 77 63 88 46 39 99 59 55 68 45 45 44 34
95 88 93 100 99 99 100 93 90 76 62 59 46 32 28 30 31 25 17 16 21 25 27 23 23 35 47 60 100 84 85 61 73 76 98 54 46 100 62 60 72 43 53 67 47
82 85 75 92 100 95 82 79 71 73 58 48 34 35 30 30 29 20 19 26 37 58 48 31 34 46 73 100 100 100 96 50 75 95 93 48 57 100 72 75 82 59 62 68 54
85 79 72 87 93 86 73 68 71 77 57 47 40 38 29 32 26 19 26 34 49 81 52 70 43 64 100 100 100 100 99 60 85 93 84 57 50 96 88 66 76 96 76 64 56
82 88 92 100 90 95 94 92 76 78 68 63 43 32 40 31 27 30 28 40 95 100 79 100 85 100 100 100 100 93 91 96 96 96 79 58 61 60 88 51 68 100 94 68 61
99 78 98 83 70 90 88 68 74 74 60 68 46 28 40 33 39 44 84 100 100 100 100 94 100 100 100 100 100 90 100 100 100 82 84 84 84 45 90 55 50 95 78 91 62
98 80 81 88 80 82 75 75 76 71 65 61 54 37 32 37 82 97 100 100 100 100 100 96 100 100 100 100 100 96 100 100 100 77 91 94 100 83 57 62 42 73 65 75 58
79 84 90 95 84 80 75 81 85 74 69 59 54 37 33 50 82 100 100 100 100 100 100 74 92 100 100 100 100 100 98 100 100 86 77 100 100 85 35 57 67 61 58 52 53
81 85 91 74 72 77 88 90 87 76 57 50 44 37 31 59 78 100 100 100 100 100 97 81 96 100 100 100 100 100 80 100 92 100 94 100 100 74 32 49 80 62 60 56 54
80 81 69 74 73 92 88 88 73 66 51 41 39 34 30 55 88 100 100 100 97 100 100 98 100 100 100 100 100 77 69 96 81 100 100 100 100 100 35 28 57 70 64 62 49
58 61 66 72 74 73 67 64 53 43 46 44 39 30 31 44 96 93 100 100 100 100 100 97 82 100 100 100 100 100 100 100 100 100 100 100 100 100 46 38 58 84 64 62 68
45 43 60 70 70 58 48 36 42 49 52 44 34 29 32 46 96 96 97 100 100 100 100 97 80 100 100 100 100 94 90 100 93 95 100 100 100 94 79 52 63 55 52 66 95
30 32 40 40 44 39 33 38 41 49 40 33 31 28 34 62 84 100 100 95 100 100 75 100 100 96 100 100 100 100 100 100 94 88 100 100 100 100 100 85 73 58 55 80 100
23 24 28 28 28 27 30 38 39 42 32 29 26 24 33 66 75 99 100 98 100 100 100 100 94 90 100 100 100 100 73 85 98 91 100 100 100 100 100 95 100 97 83 65 99
11 15 22 22 22 25 32 36 34 31 23 21 22 23 30 45 92 73 87 100 100 100 100 100 82 87 100 100 100 100 100 100 96 91 100 100 100 96 100 100 100 94 81 69 100
9 10 12 12 13 18 24 26 24 23 20 20 22 22 27 37 72 89 87 100 100 100 100 100 100 100 100 100 100 100 100 96 99 87 92 100 100 100 100 100 100 100 82 76 92
7 9 11 11 14 16 19 20 20 22 21 19 22 22 26 31 62 94 94 92 93 100 100 100 100 98 100 100 100 100 96 72 82 88 90 99 100 100 100 100 100 100 97 89 56
4 7 9 10 14 15 16 18 19 21 22 20 20 22 23 26 29 78 93 100 86 95 100 100 100 100 95 100 100 100 100 92 90 99 100 92 100 100 99 100 100 100 100 89 70
4 6 6 7 9 12 14 16 19 19 20 20 18 20 19 21 22 34 77 90 100 88 76 100 100 100 100 100 100 76 92 96 99 90 80 78 75 95 100 96 93 99 100 97 83
5 6 6 7 8 9 11 12 13 14 16 18 17 17 19 18 17 19 40 83 88 100 85 77 99 98 91 80 88 100 77 89 93 80 87 80 75 67 95 100 100 97 96 100 100

GFSSW_250_rhum_069.txt.gz
RH
98 100 82 94 100 100 100 100 100 100 100 100 100 100 100 100 100 100 100 100 100 100 100 100 100 96 90 58 49 32 26 43 50 40 36 25 22 23 34 36 43 43 42 40 43
90 100 99 92 96 93 100 100 99 82 88 88 99 100 100 100 100 100 100 100 100 100 100 80 73 59 45 52 62 48 40 46 48 29 31 26 24 23 34 39 43 50 48 48 49
97 100 100 98 87 99 95 100 100 98 68 77 92 78 75 86 90 82 99 100 100 87 77 74 70 79 48 51 58 61 26 40 25 23 22 23 26 23 32 42 44 56 51 55 61
80 99 99 100 100 100 100 100 100 100 100 100 100 100 97 91 87 69 88 72 72 94 91 78 63 45 47 66 68 46 24 24 22 21 20 24 31 27 37 43 41 68 55 58 68
57 81 100 97 100 96 94 81 86 95 100 96 90 87 88 96 100 90 92 100 100 100 100 91 52 55 77 72 47 29 24 21 23 22 21 26 33 40 37 40 43 79 54 73 62
100 58 78 70 80 85 100 94 99 95 93 94 100 100 100 94 83 88 100 98 70 71 77 71 85 68 56 56 32 26 19 21 22 21 20 29 45 40 41 36 74 81 66 79 66
100 100 98 99 100 93 65 97 77 64 64 58 70 82 100 100 100 100 100 99 87 100 100 68 57 60 42 28 31 21 18 17 20 24 27 32 43 38 39 40 93 77 85 81 57
100 100 100 100 89 100 80 64 90 96 94 76 62 58 57 75 97 99 100 98 96 89 81 72 54 37 39 30 23 20 19 21 29 32 34 40 60 41 39 65 96 77 93 75 69
100 100 98 84 100 100 96 93 83 76 80 98 98 80 49 43 58 82 81 84 79 70 61 52 39 32 28 22 22 20 21 30 38 33 41 41 100 59 57 98 95 85 80 76 90
100 100 100 100 100 100 100 100 100 100 74 68 71 86 74 75 74 66 54 49 52 49 47 41 33 29 29 20 22 18 29 34 33 36 48 40 96 68 85 100 91 80 73 91 74
100 100 100 94 100 100 100 100 100 100 100 85 60 60 67 96 78 73 69 66 59 47 35 30 30 30 21 20 19 18 28 29 31 37 45 46 100 70 95 100 86 83 68 98 64
100 100 100 100 80 100 100 100 100 100 99 74 58 57 65 80 90 82 64 59 53 44 44 32 32 25 18 18 27 31 34 37 43 51 40 56 100 97 92 100 96 89 77 89 71
100 100 100 100 98 95 100 100 89 97 82 70 86 80 99 90 84 93 65 46 42 40 34 35 29 20 17 23 36 51 34 44 56 46 42 74 98 100 100 100 100 78 83 86 57
100 100 100 100 100 100 100 92 86 84 96 69 90 91 100 97 93 60 41 37 38 32 37 37 26 20 30 53 69 65 39 42 63 41 48 76 97 100 92 100 100 83 78 92 57
100 100 100 100 100 100 100 100 100 100 100 100 100 100 95 81 64 60 45 46 41 34 52 33 29 51 62 100 68 86 45 53 60 43 88 100 100 100 100 100 100 97 80 86 57
100 100 100 100 100 100 100 99 100 96 100 86 73 85 83 67 60 48 49 53 41 45 52 36 51 93 100 100 99 100 59 88 100 85 90 100 100 100 100 100 100 98 90 99 60
81 92 95 100 100 100 100 92 87 91 94 88 77 79 81 64 68 63 58 63 43 55 48 47 91 86 100 100 100 100 88 82 100 99 100 100 100 100 100 100 97 100 100 100 94
41 61 65 71 79 82 85 83 57 78 92 66 69 84 81 72 75 66 85 58 40 60 49 77 100 88 100 100 100 100 100 100 100 99 100 100 87 100 98 100 100 99 100 85 61
24 26 30 33 30 32 31 30 61 86 78 61 70 91 72 69 62 50 70 55 51 54 61 97 100 91 95 100 100 100 100 100 100 88 100 100 100 100 100 100 100 100 99 100 75
18 21 23 21 21 20 19 22 45 82 82 59 68 98 80 58 60 49 31 49 49 53 69 96 100 100 82 94 100 100 100 100 100 89 100 100 100 100 100 100 100 100 100 100 96
9 11 11 11 12 12 15 23 28 36 32 36 41 46 59 55 53 53 26 26 40 49 57 92 100 100 90 88 100 100 100 100 100 88 94 100 100 100 100 100 94 100 100 100 100
10 12 10 9 9 8 11 13 17 27 19 26 36 38 36 43 34 41 29 30 34 41 54 100 100 100 99 86 88 100 100 100 100 100 89 100 100 100 100 100 99 87 100 100 100
7 6 6 6 6 8 9 11 13 14 14 20 30 35 34 31 27 25 28 27 35 37 58 100 100 100 100 82 83 100 100 100 100 100 100 100 100 100 100 100 97 94 74 85 100
6 6 4 5 4 5 6 8 11 13 14 15 17 23 27 32 28 30 26 23 34 36 54 100 100 100 100 74 89 100 100 98 100 100 100 88 100 100 100 100 97 64 69 58 89
5 4 4 6 4 4 5 7 7 9 12 13 16 17 18 20 22 28 25 21 33 35 43 100 100 94 98 97 100 100 100 100 100 100 100 100 100 100 100 100 100 99 76 93 78
4 3 3 4 4 4 5 6 6 7 8 11 15 16 15 14 18 20 24 25 32 37 44 100 100 100 99 87 100 100 100 100 100 100 100 100 100 100 100 100 100 100 100 100 100
3 3 4 3 3 4 4 5 6 6 7 10 13 15 15 15 16 24 27 27 28 31 38 100 100 100 93 99 100 100 100 100 100 100 100 100 100 100 96 100 100 100 100 100 100

GFSSW_250_rhum_072.txt.gz
RH
100 100 88 100 73 83 86 65 61 93 86 72 80 83 89 85 95 100 100 100 100 100 100 100 100 100 100 93 70 66 44 41 39 66 43 49 49 39 41 33 25 26 29 37 38
100 100 100 98 82 66 100 100 96 99 98 86 80 93 86 90 98 73 88 86 76 83 77 91 100 96 72 59 38 34 33 40 50 40 42 56 32 51 44 27 27 25 32 40 39
94 100 100 100 100 85 88 100 100 92 86 100 96 100 92 83 88 73 66 62 59 80 73 61 50 47 45 38 54 41 36 49 64 53 59 78 50 51 36 23 28 24 41 44 50
81 100 97 100 100 100 78 96 100 100 100 100 100 100 100 100 94 77 100 100 96 99 84 72 70 73 60 54 67 61 63 63 63 69 65 38 30 26 22 24 27 25 43 44 44
95 100 100 100 100 100 100 71 86 100 98 100 100 100 100 100 99 100 100 100 100 100 100 100 91 83 100 100 100 72 64 56 74 39 36 30 25 24 20 26 27 35 45 43 74
100 100 100 100 100 100 100 100 81 95 94 86 100 97 91 86 82 83 86 86 90 97 100 100 100 93 81 78 56 62 65 38 36 42 28 20 23 20 24 29 29 47 43 46 83
61 99 100 100 100 93 100 100 100 91 78 92 99 84 70 67 65 50 72 68 61 52 60 64 83 78 78 88 69 56 39 32 40 30 19 19 19 22 30 28 41 47 44 63 89
74 100 100 98 100 100 100 100 100 100 100 100 100 75 78 76 85 78 59 61 58 56 51 44 38 51 60 66 61 54 34 37 32 24 21 16 24 30 33 31 48 43 61 83 87
100 100 100 100 100 100 100 100 99 93 97 65 73 94 90 100 100 96 97 94 76 50 47 34 32 38 38 35 31 31 31 32 28 25 22 18 26 33 30 44 52 58 87 100 86
100 100 100 100 100 100 100 100 100 100 100 100 100 95 99 99 100 100 100 100 62 62 57 41 43 52 37 34 37 37 33 24 23 25 18 20 24 32 27 47 68 67 95 100 82
100 99 100 100 100 100 100 100 100 100 100 100 100 100 100 100 100 100 100 86 66 47 47 68 68 56 43 35 32 30 28 26 20 27 21 26 30 21 40 48 74 71 100 100 80
100 100 100 100 100 100 100 100 100 100 100 100 100 100 100 100 100 100 100 73 65 64 68 62 65 62 40 31 28 29 25 22 23 24 24 29 48 32 41 68 100 99 100 100 87
100 100 100 100 100 100 100 100 100 100 100 100 100 100 100 100 100 100 70 66 65 85 90 71 56 45 38 32 24 24 21 20 29 18 32 33 48 49 48 92 100 99 100 98 98
100 90 83 100 96 100 100 100 100 100 100 100 100 100 100 100 95 97 69 70 80 67 67 62 43 38 42 32 20 23 18 18 30 20 42 39 51 46 57 100 100 100 100 90 94
82 64 70 89 84 89 100 100 100 100 100 100 100 100 100 100 100 100 96 98 97 78 73 57 43 39 46 30 26 31 18 31 33 30 40 50 64 82 48 100 100 100 100 96 99
37 45 55 96 100 99 99 79 82 86 94 100 100 100 100 100 100 100 86 95 82 81 67 50 43 51 48 34 60 33 55 76 52 38 42 67 93 86 74 100 100 100 100 90 96
30 26 32 36 67 99 100 98 96 99 96 89 100 100 100 100 100 100 98 87 74 70 66 54 52 53 46 43 85 80 100 93 80 40 92 87 100 100 100 100 100 100 100 100 96
29 28 26 25 26 35 58 67 88 100 100 95 100 100 100 90 100 100 98 80 76 62 65 64 47 66 45 81 90 100 100 96 73 58 100 73 96 100 99 82 100 100 100 100 100
22 18 21 18 20 22 24 25 52 76 66 69 71 81 97 78 73 71 83 84 72 65 72 68 57 58 56 100 100 100 100 100 100 73 100 69 100 100 81 87 100 100 100 100 82
12 11 10 10 10 11 12 20 30 35 32 30 33 40 73 63 55 55 75 83 71 59 66 59 65 58 74 100 100 99 100 100 93 74 100 84 100 100 91 73 75 92 100 100 96
9 9 8 8 9 9 9 10 12 18 22 22 23 26 42 35 38 44 67 70 79 56 70 54 60 64 97 95 100 100 100 100 100 94 100 100 100 100 100 83 58 73 100 100 100
14 13 11 11 10 8 9 10 13 13 9 12 17 23 27 23 26 28 36 45 63 67 75 53 53 57 98 94 98 100 100 100 96 91 100 100 100 100 100 82 62 83 100 100 100
11 10 8 8 7 7 7 8 10 13 9 10 10 13 21 24 26 29 26 28 32 40 61 66 54 54 86 100 100 100 100 100 100 100 87 100 100 100 100 86 72 59 86 100 100
10 8 5 4 5 5 5 6 7 8 7 8 11 12 14 14 15 23 22 25 28 30 37 51 62 52 69 99 82 96 100 100 100 100 100 82 100 100 100 100 83 66 73 100 100
6 5 5 6 5 5 5 6 6 6 5 6 8 12 14 13 10 13 14 18 26 36 35 41 61 53 56 99 96 98 99 100 100 100 100 100 90 100 100 100 100 97 79 70 94
6 6 6 5 4 4 4 5 5 4 5 4 6 8 10 11 11 12 11 16 25 33 37 41 50 47 48 95 100 100 100 100 100 100 100 100 100 90 100 100 100 100 100 60 65
5 6 6 4 4 4 4 3 4 4 4 5 6 6 8 9 11 14 14 15 23 37 39 38 37 41 42 88 100 100 100 100 91 100 100 100 100 91 99 100 100 100 100 94 69

GFSSW_250_rhum_078.txt.gz
RH
87 72 68 55 51 84 65 42 47 32 24 20 16 19 28 38 50 65 89 96 100 97 98 100 95 63 49 55 57 46 60 49 46 63 70 57 49 59 48 57 50 45 32 26 23
91 100 95 82 51 68 81 57 63 57 46 33 26 22 20 24 48 43 69 90 100 100 95 88 77 86 74 70 63 70 60 48 54 70 75 74 63 59 56 47 40 34 30 24 27
91 100 100 100 93 63 68 83 56 55 58 45 36 30 31 26 24 60 71 80 94 77 71 86 90 100 77 70 64 64 85 90 89 72 54 56 53 49 42 43 33 26 23 30 50
100 100 100 100 100 100 77 72 90 89 91 92 69 48 37 35 38 55 100 81 99 100 100 94 83 79 100 77 53 59 65 65 70 70 62 65 44 45 42 30 28 32 33 57 96
98 91 100 100 100 100 97 87 81 90 100 100 95 65 42 41 50 44 100 100 94 69 98 99 100 100 100 100 100 98 93 93 99 96 89 93 91 78 59 74 74 62 57 59 44
86 90 100 73 93 100 100 88 91 79 93 94 99 80 55 44 39 39 78 100 100 100 100 100 99 100 100 100 100 100 93 95 87 74 58 51 38 32 34 41 38 33 35 36 34
96 99 72 84 68 76 92 99 100 86 87 71 90 91 67 54 43 38 38 100 100 100 88 100 100 100 100 100 100 100 87 74 66 52 44 44 30 28 34 50 27 25 33 30 32
94 96 100 80 90 95 85 71 71 98 72 63 74 76 83 64 50 43 52 100 100 100 100 100 100 100 100 100 94 70 52 59 82 60 66 50 27 33 51 44 24 27 27 28 25
78 82 86 79 76 89 88 84 88 83 76 67 59 62 73 63 52 47 77 100 100 100 100 100 94 100 100 89 81 62 54 50 85 90 83 47 30 41 65 37 32 29 25 25 22
74 81 80 84 87 97 90 72 56 48 43 64 52 42 52 57 56 52 66 98 100 100 100 84 100 100 100 82 83 79 100 100 100 86 64 36 28 52 68 28 32 28 28 24 25
96 100 100 100 100 99 78 55 39 28 55 46 46 46 52 58 58 80 100 100 78 71 100 100 100 100 100 100 88 94 100 100 88 79 39 33 35 59 55 30 31 31 23 26 36
99 100 100 100 90 90 59 43 24 38 46 46 55 63 61 54 91 100 100 100 100 100 100 100 100 100 100 80 95 100 100 100 89 62 39 37 37 44 41 28 27 24 26 44 46
100 94 93 87 67 58 39 25 21 34 52 95 68 78 84 81 100 100 100 100 100 100 100 100 96 100 100 97 100 100 97 71 59 56 45 33 32 32 33 27 26 26 40 50 43
100 85 86 66 38 34 28 21 22 28 45 99 90 82 72 100 100 100 100 100 100 100 100 97 100 72 88 100 100 100 84 76 56 46 38 37 24 33 29 28 25 37 58 47 46
75 74 77 43 36 36 20 29 29 47 42 51 56 83 78 77 100 100 100 100 100 100 93 100 100 100 100 100 100 100 96 69 52 41 43 46 18 44 25 26 34 49 57 48 59
70 67 48 52 59 30 32 32 33 34 36 22 32 51 70 82 68 99 100 100 100 100 100 100 100 100 100 100 100 100 99 60 40 41 58 38 21 26 21 31 40 61 63 62 69
62 62 46 48 31 29 24 23 20 20 19 20 22 26 30 42 59 69 97 100 97 100 100 98 100 96 97 96 89 91 78 47 39 54 70 37 26 16 25 32 44 77 71 89 93
48 37 28 31 31 20 17 18 17 16 16 16 18 20 28 27 33 55 77 96 98 94 98 100 99 99 100 91 84 82 59 51 55 81 56 45 70 28 37 35 71 99 84 100 90
30 23 23 24 19 17 17 13 9 8 9 9 10 11 14 17 28 37 64 100 100 100 100 100 100 100 94 97 88 86 62 54 69 68 56 63 99 38 45 62 100 100 81 100 88
24 27 23 17 17 14 11 9 8 8 9 9 10 10 12 13 16 33 51 82 100 100 100 100 100 95 96 94 80 76 73 63 84 67 61 93 90 48 75 100 100 100 92 100 100
26 21 17 15 12 10 8 8 10 11 11 12 13 12 12 10 12 18 35 56 81 90 99 100 100 100 100 100 100 92 87 79 82 63 66 100 100 61 100 100 100 100 86 88 99
19 16 13 11 10 9 10 13 13 10 8 11 11 12 14 12 11 13 18 33 60 74 80 87 100 100 100 94 91 79 84 82 77 63 66 100 100 82 100 100 100 100 98 80 94
16 11 10 9 11 13 13 11 10 8 8 10 11 11 11 12 14 13 14 19 31 48 56 82 100 100 100 100 94 78 84 85 68 67 78 99 100 100 100 100 100 100 100 98 83
11 8 10 13 14 13 11 10 8 7 6 7 7 8 10 11 11 15 16 17 20 29 36 48 70 100 100 100 100 96 83 61 67 75 85 100 100 100 97 100 100 100 100 100 100
9 12 15 13 12 11 8 6 6 6 6 6 7 7 7 8 10 14 12 18 20 20 23 20 41 47 59 90 89 62 65 67 73 80 86 100 100 100 100 95 97 100 100 100 100
14 17 13 10 10 6 6 7 6 6 6 7 8 7 7 9 9 11 12 14 16 20 14 15 24 38 42 40 55 66 63 64 73 72 100 100 100 100 100 100 88 100 100 100 100
16 14 13 9 7 7 7 7 6 5 6 6 7 7 7 7 7 8 10 12 11 18 19 20 18 27 36 31 41 70 46 69 73 86 95 100 100 100 100 100 100 89 95 99 100